Weather History for Miami, FL

Change the Weather History Date:

Thursday, September 26, 2013

  Actual Average Record
Temperature  
Mean Temperature 85 °F 82 °F  
Max Temperature 91 °F 89 °F 94 °F (1952)
Min Temperature 79 °F 76 °F 69 °F (1983)
Degree Days  
Heating Degree Days 0 0  
Month to date heating degree days 0 0  
Since 1 July heating degree days 0 0  
Cooling Degree Days 20 17  
Month to date cooling degree days 473 468  
Year to date cooling degree days 3610 3543  
Growing Degree Days 35 (Base 50)    
Moisture  
Dew Point 76 °F    
Average Humidity 75    
Maximum Humidity 91    
Minimum Humidity 59    
Precipitation  
Precipitation 0.11 in 0.32 in 2.49 in (1968)
Month to date precipitation 9.76 8.59  
Year to date precipitation 52.44 48.99  
Snow  
Snow 0.00 in - - ()
Month to date snowfall 0.0  
Since 1 July snowfall 0.0  
Since 1 September snowfall 0.0  
Snow Depth 0.00 in    
Sea Level Pressure  
Sea Level Pressure 29.86 in    
Wind  
Wind Speed 7 mph (WSW)    
Max Wind Speed 20 mph    
Max Gust Speed 30 mph    
Visibility 10 miles    
Events Rain    
T = Trace of Precipitation, MM = Missing Value Source: NWS Daily Summary

Daily Weather History Graph

Daily Weather History Graph

Search for Another Location

Airport:

Trip Planner

Search our weather history database for the weather conditions in past years. The results will help you decide how hot, cold, wet, or windy it might be!

Date:

Astronomy

Sep. 26, 2013 Rise Set
Actual Time 7:11 AM EDT 7:13 PM EDT
Civil Twilight 6:48 AM EDT 7:35 PM EDT
Nautical Twilight 6:21 AM EDT 8:02 PM EDT
Astronomical Twilight 5:55 AM EDT 8:29 PM EDT
Moon No Moon Rise 1:33 PM EDT (9/26)
Length of Visible Light 12h 47m
Length of Day
12h 01m
Waning Gibbous, 55% of the Moon is Illuminated
Sep 26
Waning Gibbous
Sep 26
Last Quarter
Oct 4
New
Oct 11
First Quarter
Oct 18
Full

Hourly Weather History & Observations

Time (EDT) Temp. Heat Index Dew Point Humidity Pressure Visibility Wind Dir Wind Speed Gust Speed Precip Events Conditions
12:53 AM 81.0 °F 87.3 °F 75.9 °F 85% 29.86 in 10.0 mi Calm Calm - N/A   Scattered Clouds
1:53 AM 81.0 °F 87.3 °F 75.9 °F 85% 29.87 in 10.0 mi WSW 4.6 mph - N/A   Scattered Clouds
2:53 AM 80.1 °F 85.4 °F 75.9 °F 87% 29.86 in 10.0 mi WSW 6.9 mph - N/A   Scattered Clouds
3:53 AM 80.1 °F 85.4 °F 75.9 °F 87% 29.85 in 10.0 mi WSW 3.5 mph - N/A   Partly Cloudy
4:53 AM 80.1 °F 85.4 °F 75.9 °F 87% 29.85 in 10.0 mi Calm Calm - N/A   Partly Cloudy
5:53 AM 80.1 °F 85.8 °F 77.0 °F 90% 29.85 in 10.0 mi Calm Calm - N/A   Partly Cloudy
6:53 AM 80.1 °F 85.4 °F 75.9 °F 87% 29.87 in 10.0 mi SW 4.6 mph - N/A   Partly Cloudy
7:53 AM 80.1 °F 85.8 °F 77.0 °F 90% 29.88 in 10.0 mi SSW 5.8 mph - N/A   Scattered Clouds
8:53 AM 82.9 °F 92.8 °F 78.1 °F 85% 29.89 in 10.0 mi SW 9.2 mph - N/A   Scattered Clouds
9:53 AM 86.0 °F 96.0 °F 75.9 °F 72% 29.89 in 10.0 mi WSW 9.2 mph 16.1 mph N/A   Mostly Cloudy
10:12 AM 86.0 °F 96.9 °F 77.0 °F 74% 29.89 in 10.0 mi WSW 9.2 mph - N/A   Mostly Cloudy
10:53 AM 87.1 °F 95.4 °F 73.9 °F 65% 29.89 in 10.0 mi West 11.5 mph 19.6 mph N/A   Mostly Cloudy
11:53 AM 89.1 °F 98.0 °F 73.9 °F 61% 29.88 in 10.0 mi WSW 12.7 mph 20.7 mph N/A   Mostly Cloudy
12:53 PM 89.1 °F 100.2 °F 75.9 °F 65% 29.86 in 10.0 mi West 11.5 mph 19.6 mph 0.00 in Rain Light Rain
1:53 PM 90.0 °F 100.2 °F 75.0 °F 61% 29.84 in 10.0 mi West 15.0 mph 20.7 mph 0.00 in   Mostly Cloudy
2:53 PM 89.1 °F 99.1 °F 75.0 °F 63% 29.83 in 10.0 mi West 12.7 mph - N/A   Mostly Cloudy
3:53 PM 88.0 °F 100.2 °F 77.0 °F 70% 29.83 in 10.0 mi WNW 11.5 mph - 0.01 in   Mostly Cloudy
4:53 PM 81.0 °F 86.2 °F 73.9 °F 79% 29.85 in 5.0 mi WNW 11.5 mph 29.9 mph 0.09 in Rain Heavy Rain
5:53 PM 82.0 °F 88.6 °F 75.0 °F 79% 29.83 in 10.0 mi WNW 6.9 mph - 0.01 in   Mostly Cloudy
6:53 PM 82.9 °F 90.2 °F 75.0 °F 77% 29.83 in 10.0 mi West 8.1 mph - N/A   Mostly Cloudy
7:53 PM 82.0 °F 89.4 °F 75.9 °F 82% 29.84 in 10.0 mi SW 4.6 mph - N/A   Scattered Clouds
8:53 PM 82.0 °F 89.4 °F 75.9 °F 82% 29.85 in 10.0 mi West 5.8 mph - N/A   Scattered Clouds
9:53 PM 82.0 °F 88.6 °F 75.0 °F 79% 29.86 in 10.0 mi West 6.9 mph - N/A   Partly Cloudy
10:53 PM 82.0 °F 89.4 °F 75.9 °F 82% 29.86 in 10.0 mi WSW 5.8 mph - N/A   Partly Cloudy
11:53 PM 81.0 °F 87.3 °F 75.9 °F 85% 29.87 in 10.0 mi WSW 4.6 mph - N/A   Partly Cloudy